Weather History for Beverly, MA

Change the Weather History Date:

Friday, September 6, 2013

  Actual Average Record
Temperature  
Mean Temperature 56 °F -  
Max Temperature 70 °F 74 °F 95 °F (1983)
Min Temperature 43 °F 54 °F 43 °F (2013)
Degree Days  
Heating Degree Days 9    
Growing Degree Days 6 (Base 50)    
Moisture  
Dew Point 41 °F    
Average Humidity 58    
Maximum Humidity 86    
Minimum Humidity 33    
Precipitation  
Precipitation 0.00 in - - ()
Sea Level Pressure  
Sea Level Pressure 30.16 in    
Wind  
Wind Speed 5 mph (WNW)    
Max Wind Speed 8 mph    
Max Gust Speed -    
Visibility 10 miles    
Events      
Averages and records for this station are not official NWS values.
T = Trace of Precipitation, MM = Missing Value Source: NWS Daily Summary

Daily Weather History Graph

Daily Weather History Graph

Search for Another Location

Airport:

Trip Planner

Search our weather history database for the weather conditions in past years. The results will help you decide how hot, cold, wet, or windy it might be!

Date:

Astronomy

Sep. 06, 2013 Rise Set
Actual Time 6:14 AM EDT 7:08 PM EDT
Civil Twilight 5:45 AM EDT 7:37 PM EDT
Nautical Twilight 5:11 AM EDT 8:11 PM EDT
Astronomical Twilight 4:35 AM EDT 8:47 PM EDT
Moon 7:25 AM EDT (9/6) 7:28 PM EDT (9/6)
Length of Visible Light 13h 52m
Length of Day
12h 54m
New Moon, 1% of the Moon is Illuminated
Sep 6
New Moon
Sep 12
First Quarter
Sep 19
Full
Sep 26
Last Quarter
Oct 4
New

Hourly Weather History & Observations

Time (EDT) Temp. Windchill Dew Point Humidity Pressure Visibility Wind Dir Wind Speed Gust Speed Precip Events Conditions
12:53 AM 50.0 °F - 43.0 °F 77% 30.14 in 10.0 mi NNE 4.6 mph - N/A   Clear
1:53 AM 48.9 °F - 42.1 °F 77% 30.15 in 10.0 mi North 5.8 mph - N/A   Clear
2:53 AM 46.9 °F - 42.1 °F 83% 30.15 in 10.0 mi NNW 3.5 mph - N/A   Clear
3:53 AM 46.0 °F 43.9 °F 41.0 °F 83% 30.16 in 10.0 mi NW 4.6 mph - N/A   Clear
4:53 AM 43.0 °F 38.8 °F 39.0 °F 86% 30.18 in 10.0 mi NNW 6.9 mph - N/A   Clear
5:53 AM 44.1 °F 41.5 °F 39.0 °F 82% 30.19 in 10.0 mi NNW 4.6 mph - N/A   Clear
6:53 AM 45.0 °F 42.6 °F 41.0 °F 86% 30.21 in 10.0 mi NNW 4.6 mph - N/A   Clear
7:53 AM 52.0 °F - 43.0 °F 71% 30.22 in 10.0 mi NNW 6.9 mph - N/A   Clear
8:53 AM 57.0 °F - 44.1 °F 62% 30.22 in 10.0 mi NNW 5.8 mph - N/A   Clear
9:53 AM 62.1 °F - 43.0 °F 50% 30.23 in 10.0 mi NW 4.6 mph - N/A   Clear
10:53 AM 63.0 °F - 37.0 °F 38% 30.22 in 10.0 mi Variable 3.5 mph - N/A   Clear
11:53 AM 64.9 °F - 37.0 °F 36% 30.21 in 10.0 mi Variable 3.5 mph - N/A   Clear
11:54 AM 64.4 °F - 37.4 °F 37% 30.22 in 10.0 mi Variable 3.5 mph - N/A   Scattered Clouds
12:53 PM 66.0 °F - 36.0 °F 33% 30.19 in 10.0 mi Calm Calm - N/A   Scattered Clouds
1:53 PM 66.9 °F - 37.9 °F 34% 30.17 in 10.0 mi Variable 3.5 mph - N/A   Scattered Clouds
2:53 PM 68.0 °F - 37.9 °F 33% 30.15 in 10.0 mi West 8.1 mph - N/A   Clear
3:53 PM 68.0 °F - 37.9 °F 33% 30.13 in 10.0 mi WNW 4.6 mph - N/A   Scattered Clouds
4:53 PM 69.1 °F - 39.0 °F 33% 30.11 in 10.0 mi WSW 8.1 mph - N/A   Scattered Clouds
5:53 PM 66.9 °F - 39.0 °F 36% 30.10 in 10.0 mi West 6.9 mph - N/A   Scattered Clouds
6:53 PM 64.9 °F - 39.9 °F 40% 30.10 in 10.0 mi West 3.5 mph - N/A   Scattered Clouds
7:53 PM 57.9 °F - 44.1 °F 60% 30.09 in 10.0 mi Calm Calm - N/A   Clear
8:53 PM 55.9 °F - 44.1 °F 64% 30.10 in 10.0 mi WSW 3.5 mph - N/A   Clear
9:53 PM 54.0 °F - 44.1 °F 69% 30.09 in 10.0 mi SW 4.6 mph - N/A   Clear
10:53 PM 54.0 °F - 43.0 °F 66% 30.09 in 10.0 mi SW 4.6 mph - N/A   Clear
11:53 PM 53.1 °F - 44.1 °F 71% 30.07 in 10.0 mi WSW 3.5 mph - N/A   Clear